Location: Bush Observatory
(40.2653°N, 94.3194°W)
Time: 20:24:48
(UTC-05:00)

JAS-2 - Visible Passes

Search period start: 01 April 2015 00:00
Search period end: 11 April 2015 00:00
Orbit: 801 x 1321 km, 98.5° (Epoch: 31 March)

Date Brightness Start Highest point End Pass type
(mag) Time Alt. Az. Time Alt. Az. Time Alt. Az.
01 Apr 11.3 04:46:31 10° NNE 04:53:26 37° E 04:59:51 10° SSE visible
01 Apr 10.4 06:31:20 10° N 06:38:35 45° WNW 06:45:09 10° SW visible
02 Apr 12.3 03:54:03 10° NE 03:57:23 14° E 04:01:07 10° ESE visible
02 Apr 10.1 05:36:09 10° NNE 05:43:53 82° ESE 05:50:49 10° SSW visible
03 Apr 11.4 04:41:50 10° NNE 04:48:32 34° E 04:54:45 10° SSE visible
03 Apr 10.3 06:26:31 10° N 06:33:47 47° WNW 06:40:19 10° SW visible
04 Apr 12.4 03:49:47 10° ENE 03:52:25 12° E 03:55:30 10° ESE visible
04 Apr 10.1 05:31:24 10° NNE 05:39:02 78° ESE 05:45:51 10° S visible
05 Apr 11.5 04:37:10 10° NNE 04:43:37 32° E 04:49:37 10° SSE visible
05 Apr 10.2 06:21:43 10° N 06:28:57 49° WNW 06:35:26 10° SW visible
06 Apr 12.5 03:45:47 10° ENE 03:47:25 11° E 03:49:38 10° E visible
06 Apr 10.1 05:26:38 10° NNE 05:34:10 73° ESE 05:40:51 10° S visible
07 Apr 11.6 04:32:31 10° NNE 04:38:41 29° E 04:44:27 10° SSE visible
07 Apr 10.1 06:16:54 10° N 06:24:07 52° WNW 06:30:33 10° SW visible
08 Apr 10.2 05:21:53 10° NNE 05:29:17 68° E 05:35:50 10° S visible
09 Apr 11.7 04:27:52 10° NE 04:33:44 27° E 04:39:15 10° SSE visible
09 Apr 10.0 06:12:06 10° N 06:19:17 55° WNW 06:25:39 10° SW visible
10 Apr 10.2 05:17:09 10° NNE 05:24:23 64° E 05:30:47 10° S visible
